Location: Unspecified
(0.0000°N, 0.0000°E)
Time: 21:25:55
(UTC+00:00)

CZ-3C DEB - Pass Details

Date: 08 March 2026
Orbit: 440 x 28021 km, 21.3° (Epoch: 10 April)

Event Time Altitude Azimuth Distance (km) Brightness Sun altitude
Exits shadow 04:27:59 11° 213° (SSW) 3,384 ? -25.6°
Maximum altitude 04:28:38 11° 208° (SSW) 3,193 ? -25.5°
Drops below altitude 10° 04:30:22 10° 192° (SSW) 2,785 ? -25.0°
Sets 04:34:13 0° 149° (SSE) 2,806 ? -24.1°
